TECHNOSAT (42829 NORAD) Tracking and Keplerian Element Data

This shows tracking and keplerian element data for the satellite.

Feedback or suggestion? Click here.




ElementValue
Catalog42829
NameTECHNOSAT
Epoch Orbit37581
Epoch Day160.08946909
Epoch Year2024
RAAN341.6698
Inclination97.3829
Eccentricity0.001365
Argument of Perigee104.0986
Mean Anonmoly256.1754
Mean Motion14.96555698
Decay Rate5.325E-05
L11 42829U 17042E 24160.08946909 .00005325 00000+0 47187-3 0 9991
L22 42829 97.3829 341.6698 0013650 104.0986 256.1754 14.96555698375817



Live tracking and technical data element details for TECHNOSAT (NORAD 42829). TECHNOSAT can be tracked NOW for your location showing map with azimuth and elevation plus other details from your city location.







IsCatalogInMostPopularTable: catalog: 42829, numindb: 915
Update: records affected: 1



GetName: 42829 TECHNOSAT

Hit Count: updated at: Tue, 17 Sep 2024 12:34:59 GMT